This is the latest recevied weather packets stored in our database for station/object JA0ZJX-13. If no packets are shown the sender has not sent any weather packets the latest 10 day(s).
| Time | Temp. | Humidity | Pressure | Rain* | Wind** | Luminosity | Snow |
|---|---|---|---|---|---|---|---|
| 1777734224 | 12.78° C | 70% | 1013.6 hPa | 0 mm | - | 0 W/m² | - |
| 1777733005 | 12.78° C | 68% | 1013.8 hPa | 0 mm | - | 0 W/m² | - |
| 1777732414 | 13.33° C | 67% | 1013.9 hPa | 0 mm | - | 0 W/m² | - |
| 1777731824 | 13.89° C | 66% | 1013.7 hPa | 0 mm | - | 0 W/m² | - |
| 1777731218 | 13.89° C | 65% | 1013.8 hPa | 0 mm | - | 0 W/m² | - |
| 1777730605 | 14.44° C | 63% | 1013.7 hPa | 0 mm | - | 0 W/m² | - |
| 1777730015 | 13.89° C | 63% | 1013.7 hPa | 0 mm | - | 0 W/m² | - |
| 1777729404 | 13.89° C | 65% | 1013.8 hPa | 0 mm | - | 0 W/m² | - |
| 1777728819 | 14.44° C | 63% | 1013.6 hPa | 0 mm | - | 0 W/m² | - |
| 1777728209 | 15° C | 60% | 1013.4 hPa | 0 mm | - | 0 W/m² | - |
| 1777727607 | 15° C | 60% | 1013.4 hPa | 0 mm | - | 0 W/m² | - |
| 1777727008 | 15° C | 61% | 1013.3 hPa | 0 mm | - | 0 W/m² | - |
| 1777726417 | 15° C | 61% | 1013.4 hPa | 0 mm | - | 0 W/m² | - |
| 1777725806 | 15° C | 61% | 1013.4 hPa | 0 mm | - | 0 W/m² | - |
| 1777725215 | 15° C | 60% | 1013.4 hPa | 0 mm | - | 0 W/m² | - |
| 1777724609 | 15° C | 58% | 1013.3 hPa | 0 mm | - | 0 W/m² | - |
| 1777724017 | 15.56° C | 58% | 1013.2 hPa | 0 mm | - | 0 W/m² | - |
| 1777723406 | 15.56° C | 58% | 1013.1 hPa | 0 mm | - | 0 W/m² | - |
| 1777722819 | 15.56° C | 57% | 1012.9 hPa | 0 mm | - | 0 W/m² | - |
| 1777722208 | 15.56° C | 56% | 1012.9 hPa | 0 mm | - | 0 W/m² | - |
| 1777721617 | 16.11° C | 55% | 1012.6 hPa | 0 mm | - | 0 W/m² | - |
| 1777721008 | 16.11° C | 54% | 1012.4 hPa | 0 mm | - | 0 W/m² | - |
| 1777720421 | 16.67° C | 53% | 1012.3 hPa | 0 mm | - | 0 W/m² | - |
| 1777719808 | 16.67° C | 52% | 1012.2 hPa | 0 mm | - | 0 W/m² | - |
| 1777719218 | 17.22° C | 50% | 1012.1 hPa | 0 mm | - | 0 W/m² | - |
* Rain latest hour (hover to see other rain measurements)
** Current wind speed in m/s (hover to see current wind gust speed)